Location: Milton Keynes
(52.0316°N, 0.7531°W)
Time: 04:36:00
(UTC+00:00)

Genesis I - Pass Details

Date: 23 January 2019
Orbit: 476 x 550 km, 64.5° (Epoch: 21 February)

Event Time Altitude Azimuth Distance (km) Brightness Sun altitude
Exits shadow 06:40:48 11° 251° (WSW) 1,748 5.4 -11.4°
Maximum altitude 06:44:31 42° 323° (NW) 792 3.7 -10.8°
Drops below altitude 10° 06:48:28 10° 35° (NE) 1,837 6.2 -10.3°
Sets 06:50:47 0° 42° (NE) 2,734 7.2 -9.9°
